UAL319 MMMX-KIAH

Flight info

Callsign UAL319
Flight time 1h 54m
Altitude 35000
Route IKLAN2A IKLAN UT139 ONGOB UJ35 MAM/N0469F360 DCT CRP HTOWN3
Aircraft B738/M-SDE2E3FGHIRWXY/LB1

Departure

Time 2026-05-04 19:32
Airport Mexico City Benito Juárez International Airport (MMMX)

Arrival

Time 2026-05-04 21:26
Airport George Bush Intercontinental Airport (KIAH)
Time Latitude Longitude Altitude Speed Heading
2026-05-04 18:44 19.43499 -99.08163 7301 ft 0 kts 329°
2026-05-04 19:21 19.43495 -99.08160 7329 ft 4 kts 329°
2026-05-04 19:21 19.43472 -99.08146 7301 ft 4 kts 329°
2026-05-04 19:22 19.43454 -99.08134 7301 ft 4 kts 318°
2026-05-04 19:22 19.43438 -99.08112 7302 ft 4 kts 289°
2026-05-04 19:22 19.43434 -99.08085 7302 ft 4 kts 260°
2026-05-04 19:22 19.43440 -99.08066 7302 ft 0 kts 239°
2026-05-04 19:26 19.43439 -99.08068 7302 ft 2 kts 239°
2026-05-04 19:26 19.43421 -99.08102 7301 ft 7 kts 241°
2026-05-04 19:26 19.43396 -99.08146 7301 ft 6 kts 239°
2026-05-04 19:26 19.43374 -99.08185 7301 ft 6 kts 240°
2026-05-04 19:27 19.43353 -99.08223 7301 ft 6 kts 240°
2026-05-04 19:27 19.43332 -99.08260 7301 ft 6 kts 239°
2026-05-04 19:27 19.43311 -99.08300 7301 ft 7 kts 240°
2026-05-04 19:27 19.43284 -99.08348 7301 ft 8 kts 239°
2026-05-04 19:28 19.43256 -99.08396 7300 ft 8 kts 239°
2026-05-04 19:28 19.43222 -99.08456 7300 ft 11 kts 239°
2026-05-04 19:28 19.43184 -99.08521 7300 ft 10 kts 235°
2026-05-04 19:28 19.43157 -99.08574 7300 ft 8 kts 241°
2026-05-04 19:29 19.43143 -99.08599 7300 ft 0 kts 239°
2026-05-04 19:29 19.43131 -99.08614 7300 ft 2 kts 222°
2026-05-04 19:29 19.43130 -99.08615 7300 ft 0 kts 221°
2026-05-04 19:30 19.43129 -99.08615 7300 ft 0 kts 221°
2026-05-04 19:30 19.43096 -99.08618 7300 ft 10 kts 161°
2026-05-04 19:31 19.43045 -99.08569 7300 ft 10 kts 105°
2026-05-04 19:31 19.43069 -99.08493 7300 ft 22 kts 59°
2026-05-04 19:31 19.43274 -99.08131 7302 ft 91 kts 59°
2026-05-04 19:31 19.43705 -99.07364 7301 ft 150 kts 60°
2026-05-04 19:32 19.44326 -99.06255 7344 ft 197 kts 59°
2026-05-04 19:32 19.45039 -99.04950 7990 ft 207 kts 60°
2026-05-04 19:32 19.45769 -99.03608 8964 ft 208 kts 57°
2026-05-04 19:32 19.46541 -99.02275 9357 ft 225 kts 58°
2026-05-04 19:33 19.47393 -99.00785 9465 ft 247 kts 58°
2026-05-04 19:33 19.48314 -98.99157 9570 ft 268 kts 58°
2026-05-04 19:33 19.49307 -98.97392 9653 ft 289 kts 58°
2026-05-04 19:33 19.50349 -98.95538 10104 ft 293 kts 58°
2026-05-04 19:34 19.51410 -98.93646 10465 ft 309 kts 58°
2026-05-04 19:34 19.52546 -98.91622 10575 ft 330 kts 58°
2026-05-04 19:34 19.53831 -98.89521 10705 ft 348 kts 51°
2026-05-04 19:34 19.55462 -98.87532 10830 ft 366 kts 46°
2026-05-04 19:35 19.57243 -98.85558 11079 ft 376 kts 46°
2026-05-04 19:35 19.59073 -98.83543 11459 ft 382 kts 45°
2026-05-04 19:35 19.60918 -98.81480 11853 ft 387 kts 46°
2026-05-04 19:35 19.62750 -98.79394 12492 ft 385 kts 47°
2026-05-04 19:36 19.64582 -98.77287 12966 ft 390 kts 47°
2026-05-04 19:36 19.66419 -98.75164 13492 ft 392 kts 47°
2026-05-04 19:36 19.68313 -98.73072 14005 ft 394 kts 39°
2026-05-04 19:36 19.70694 -98.71675 14588 ft 395 kts 16°
2026-05-04 19:37 19.73422 -98.71351 15080 ft 396 kts 357°
2026-05-04 19:37 19.76144 -98.71819 15595 ft 398 kts 347°
2026-05-04 19:37 19.78862 -98.72516 15921 ft 404 kts 347°
2026-05-04 19:37 19.81600 -98.73252 16335 ft 408 kts 346°
2026-05-04 19:38 19.84360 -98.73994 16782 ft 409 kts 347°
2026-05-04 19:38 19.87089 -98.74717 17231 ft 411 kts 347°
2026-05-04 19:38 19.89871 -98.75443 17641 ft 413 kts 347°
2026-05-04 19:38 19.92671 -98.76163 18049 ft 414 kts 347°
2026-05-04 19:39 19.95466 -98.76877 18532 ft 413 kts 347°
2026-05-04 19:39 19.98270 -98.77592 18857 ft 416 kts 347°
2026-05-04 19:39 20.01106 -98.78312 19093 ft 420 kts 347°
2026-05-04 19:39 20.03955 -98.79037 19442 ft 421 kts 347°
2026-05-04 19:40 20.06812 -98.79763 19754 ft 423 kts 347°
2026-05-04 19:40 20.09681 -98.80494 20092 ft 425 kts 347°
2026-05-04 19:40 20.12569 -98.81229 20391 ft 428 kts 347°
2026-05-04 19:40 20.15474 -98.81969 20719 ft 430 kts 347°
2026-05-04 19:41 20.18387 -98.82711 21037 ft 432 kts 347°
2026-05-04 19:41 20.21317 -98.83459 21334 ft 434 kts 347°
2026-05-04 19:41 20.24262 -98.84209 21634 ft 436 kts 347°
2026-05-04 19:41 20.27216 -98.84963 21999 ft 435 kts 347°
2026-05-04 19:42 20.30155 -98.85714 22399 ft 436 kts 347°
2026-05-04 19:42 20.33114 -98.86470 22634 ft 439 kts 347°
2026-05-04 19:42 20.36092 -98.87231 22887 ft 442 kts 347°
2026-05-04 19:42 20.39065 -98.87990 23047 ft 446 kts 347°
2026-05-04 19:43 20.42105 -98.88607 23411 ft 446 kts 354°
2026-05-04 19:43 20.45214 -98.88743 23614 ft 448 kts
2026-05-04 19:43 20.48319 -98.88387 23792 ft 451 kts
2026-05-04 19:43 20.51420 -98.87840 24074 ft 451 kts
2026-05-04 19:44 20.54523 -98.87270 24248 ft 454 kts
2026-05-04 19:44 20.57633 -98.86700 24474 ft 454 kts
2026-05-04 19:44 20.60757 -98.86134 24686 ft 455 kts
2026-05-04 19:44 20.63891 -98.85574 24857 ft 458 kts
2026-05-04 19:45 20.67036 -98.85019 25051 ft 459 kts
2026-05-04 19:45 20.70196 -98.84469 25274 ft 460 kts
2026-05-04 19:45 20.73365 -98.83920 25433 ft 462 kts
2026-05-04 19:45 20.76541 -98.83369 25634 ft 463 kts
2026-05-04 19:46 20.79729 -98.82818 25871 ft 464 kts
2026-05-04 19:46 20.82927 -98.82268 26018 ft 466 kts
2026-05-04 19:46 20.86137 -98.81716 26195 ft 468 kts
2026-05-04 19:46 20.89357 -98.81160 26427 ft 468 kts
2026-05-04 19:47 20.92580 -98.80599 26574 ft 471 kts
2026-05-04 19:47 20.95831 -98.80032 26614 ft 476 kts
2026-05-04 19:47 20.99112 -98.79462 26788 ft 477 kts
2026-05-04 19:47 21.02388 -98.78892 27011 ft 477 kts
2026-05-04 19:48 21.05670 -98.78321 27208 ft 478 kts
2026-05-04 19:48 21.08957 -98.77750 27363 ft 480 kts
2026-05-04 19:48 21.12261 -98.77175 27527 ft 481 kts
2026-05-04 19:48 21.15561 -98.76600 27777 ft 480 kts
2026-05-04 19:49 21.18853 -98.76026 28039 ft 479 kts
2026-05-04 19:49 21.22137 -98.75454 28280 ft 478 kts
2026-05-04 19:49 21.25418 -98.74882 28520 ft 478 kts
2026-05-04 19:49 21.28710 -98.74308 28773 ft 478 kts
2026-05-04 19:50 21.31987 -98.73736 29046 ft 477 kts
2026-05-04 19:50 21.35217 -98.73172 29310 ft 477 kts
2026-05-04 19:50 21.38487 -98.72601 29585 ft 476 kts
2026-05-04 19:50 21.41757 -98.72030 29871 ft 476 kts
2026-05-04 19:51 21.45019 -98.71458 30142 ft 475 kts
2026-05-04 19:51 21.48270 -98.70887 30465 ft 472 kts
2026-05-04 19:51 21.51505 -98.70322 30783 ft 470 kts
2026-05-04 19:51 21.54728 -98.69759 31044 ft 469 kts
2026-05-04 19:52 21.57956 -98.69194 31274 ft 470 kts
2026-05-04 19:52 21.61181 -98.68630 31469 ft 470 kts
2026-05-04 19:52 21.64407 -98.68065 31762 ft 469 kts
2026-05-04 19:52 21.67625 -98.67501 32080 ft 467 kts
2026-05-04 19:53 21.70827 -98.66940 32379 ft 466 kts
2026-05-04 19:53 21.74019 -98.66380 32643 ft 465 kts
2026-05-04 19:53 21.77217 -98.65818 32900 ft 465 kts
2026-05-04 19:53 21.80404 -98.65258 33196 ft 464 kts
2026-05-04 19:54 21.83579 -98.64700 33496 ft 462 kts
2026-05-04 19:54 21.86751 -98.64142 33786 ft 461 kts
2026-05-04 19:54 21.89916 -98.63586 34023 ft 461 kts
2026-05-04 19:54 21.93081 -98.63029 34265 ft 460 kts
2026-05-04 19:55 21.96229 -98.62474 34544 ft 457 kts
2026-05-04 19:55 21.99365 -98.61922 34836 ft 455 kts
2026-05-04 19:55 22.02455 -98.61378 34875 ft 458 kts
2026-05-04 19:56 22.08783 -98.60264 34886 ft 463 kts
2026-05-04 19:56 22.15168 -98.59138 34906 ft 466 kts
2026-05-04 19:57 22.21577 -98.58005 34901 ft 467 kts
2026-05-04 19:57 22.28002 -98.56869 34904 ft 468 kts
2026-05-04 19:58 22.34436 -98.55729 34904 ft 469 kts
2026-05-04 19:58 22.40877 -98.54588 34905 ft 468 kts
2026-05-04 19:59 22.47300 -98.53449 34906 ft 468 kts
2026-05-04 19:59 22.53723 -98.52309 34912 ft 467 kts
2026-05-04 20:00 22.60135 -98.51170 34913 ft 467 kts
2026-05-04 20:00 22.66508 -98.50037 34923 ft 466 kts
2026-05-04 20:01 22.72909 -98.48898 34937 ft 466 kts
2026-05-04 20:01 22.79310 -98.47758 34944 ft 466 kts
2026-05-04 20:02 22.85711 -98.46616 34942 ft 466 kts
2026-05-04 20:02 22.92107 -98.45474 34958 ft 466 kts
2026-05-04 20:03 22.98497 -98.44333 34950 ft 465 kts
2026-05-04 20:03 23.04881 -98.43191 34963 ft 465 kts
2026-05-04 20:04 23.11267 -98.42048 34963 ft 465 kts
2026-05-04 20:04 23.17610 -98.40911 34963 ft 465 kts
2026-05-04 20:05 23.23992 -98.39785 34966 ft 463 kts
2026-05-04 20:05 23.29258 -98.38679 34937 ft 467 kts 11°
2026-05-04 20:06 23.35461 -98.36574 34963 ft 467 kts 13°
2026-05-04 20:06 23.41648 -98.34374 34962 ft 469 kts 13°
2026-05-04 20:07 23.47862 -98.32212 34953 ft 469 kts 13°
2026-05-04 20:07 23.54088 -98.30074 34954 ft 469 kts 12°
2026-05-04 20:08 23.60310 -98.27944 34938 ft 468 kts 12°
2026-05-04 20:08 23.66530 -98.25812 34931 ft 468 kts 12°
2026-05-04 20:09 23.72746 -98.23677 34926 ft 468 kts 12°
2026-05-04 20:09 23.78961 -98.21540 34923 ft 468 kts 12°
2026-05-04 20:10 23.85172 -98.19402 34944 ft 468 kts 12°
2026-05-04 20:10 23.91386 -98.17261 34928 ft 468 kts 12°
2026-05-04 20:11 23.97603 -98.15117 34941 ft 469 kts 12°
2026-05-04 20:11 24.03822 -98.12970 34923 ft 469 kts 12°
2026-05-04 20:12 24.10042 -98.10819 34932 ft 469 kts 12°
2026-05-04 20:12 24.16224 -98.08680 34929 ft 469 kts 12°
2026-05-04 20:13 24.22488 -98.06511 34942 ft 470 kts 12°
2026-05-04 20:13 24.28696 -98.04361 34946 ft 471 kts 12°
2026-05-04 20:14 24.34954 -98.02196 34938 ft 472 kts 12°
2026-05-04 20:14 24.41218 -98.00026 34941 ft 472 kts 12°
2026-05-04 20:15 24.47485 -97.97852 34940 ft 473 kts 12°
2026-05-04 20:15 24.53757 -97.95674 34949 ft 472 kts 12°
2026-05-04 20:16 24.60019 -97.93496 34935 ft 472 kts 12°
2026-05-04 20:16 24.66274 -97.91319 34937 ft 471 kts 12°
2026-05-04 20:17 24.72518 -97.89144 34945 ft 471 kts 12°
2026-05-04 20:17 24.78759 -97.86968 34945 ft 470 kts 12°
2026-05-04 20:18 24.85007 -97.84787 34953 ft 471 kts 11°
2026-05-04 20:18 24.91253 -97.82604 34950 ft 471 kts 11°
2026-05-04 20:19 24.97510 -97.80415 34945 ft 472 kts 11°
2026-05-04 20:19 25.03725 -97.78238 34946 ft 472 kts 11°
2026-05-04 20:20 25.09982 -97.76044 34950 ft 472 kts 11°
2026-05-04 20:20 25.16242 -97.73846 34969 ft 472 kts 11°
2026-05-04 20:21 25.22513 -97.71643 34956 ft 473 kts 11°
2026-05-04 20:21 25.31914 -97.68334 34957 ft 473 kts 11°
2026-05-04 20:22 25.38186 -97.66125 34962 ft 473 kts 11°
2026-05-04 20:22 25.44460 -97.63918 34977 ft 473 kts 11°
2026-05-04 20:23 25.50737 -97.61710 34967 ft 473 kts 11°
2026-05-04 20:23 25.57014 -97.59498 34968 ft 474 kts 11°
2026-05-04 20:24 25.63296 -97.57281 34961 ft 474 kts 11°
2026-05-04 20:24 25.69571 -97.55064 34962 ft 473 kts 11°
2026-05-04 20:25 25.75796 -97.52899 34974 ft 469 kts
2026-05-04 20:25 25.82143 -97.52072 34973 ft 455 kts 355°
2026-05-04 20:26 25.88483 -97.51912 34963 ft 456 kts 354°
2026-05-04 20:26 25.94826 -97.51739 34961 ft 457 kts 355°
2026-05-04 20:27 26.01194 -97.51526 34960 ft 458 kts 355°
2026-05-04 20:27 26.07562 -97.51294 34975 ft 458 kts 355°
2026-05-04 20:28 26.13926 -97.51059 34963 ft 458 kts 355°
2026-05-04 20:28 26.20294 -97.50824 34960 ft 457 kts 355°
2026-05-04 20:29 26.26644 -97.50591 34961 ft 456 kts 355°
2026-05-04 20:29 26.32988 -97.50358 34962 ft 456 kts 355°
2026-05-04 20:30 26.39288 -97.50127 34978 ft 456 kts 354°
2026-05-04 20:30 26.45621 -97.49894 34961 ft 455 kts 354°
2026-05-04 20:31 26.51946 -97.49661 34952 ft 454 kts 354°
2026-05-04 20:31 26.58265 -97.49429 34954 ft 454 kts 354°
2026-05-04 20:32 26.64580 -97.49196 34953 ft 454 kts 354°
2026-05-04 20:32 26.70887 -97.48963 34964 ft 453 kts 354°
2026-05-04 20:33 26.77183 -97.48730 34953 ft 452 kts 354°
2026-05-04 20:33 26.83468 -97.48497 34958 ft 451 kts 354°
2026-05-04 20:34 26.89742 -97.48265 34956 ft 451 kts 354°
2026-05-04 20:34 26.96008 -97.48033 34960 ft 451 kts 354°
2026-05-04 20:35 27.02282 -97.47800 34966 ft 451 kts 354°
2026-05-04 20:35 27.08556 -97.47567 34961 ft 451 kts 354°
2026-05-04 20:36 27.14828 -97.47334 34961 ft 451 kts 354°
2026-05-04 20:36 27.21100 -97.47100 34962 ft 451 kts 354°
2026-05-04 20:37 27.27369 -97.46866 34953 ft 449 kts 354°
2026-05-04 20:37 27.30409 -97.46748 34955 ft 437 kts 353°
2026-05-04 20:37 27.33392 -97.46626 34943 ft 423 kts 353°
2026-05-04 20:38 27.39230 -97.46407 34954 ft 418 kts 353°
2026-05-04 20:38 27.45030 -97.46199 34960 ft 413 kts 353°
2026-05-04 20:39 27.50722 -97.45986 34971 ft 407 kts 353°
2026-05-04 20:39 27.56389 -97.45777 34976 ft 406 kts 353°
2026-05-04 20:40 27.59174 -97.45669 34962 ft 394 kts 353°
2026-05-04 20:40 27.61872 -97.45560 34958 ft 380 kts 352°
2026-05-04 20:40 27.67012 -97.45363 34968 ft 369 kts 352°
2026-05-04 20:41 27.72160 -97.45183 34990 ft 371 kts 352°
2026-05-04 20:41 27.77326 -97.44995 34992 ft 373 kts 352°
2026-05-04 20:42 27.82530 -97.44799 34994 ft 376 kts 352°
2026-05-04 20:42 27.87767 -97.44601 34998 ft 377 kts 352°
2026-05-04 20:43 27.93046 -97.43978 34965 ft 396 kts
2026-05-04 20:43 27.95619 -97.42733 34964 ft 410 kts 19°
2026-05-04 20:43 27.97999 -97.40866 34972 ft 424 kts 32°
2026-05-04 20:44 28.00022 -97.38357 34961 ft 440 kts 48°
2026-05-04 20:44 28.01460 -97.35244 34960 ft 454 kts 65°
2026-05-04 20:44 28.02116 -97.31719 34971 ft 464 kts 84°
2026-05-04 20:44 28.01893 -97.28068 34963 ft 468 kts 103°
2026-05-04 20:45 28.00793 -97.24625 34976 ft 465 kts 121°
2026-05-04 20:45 27.98937 -97.21679 34971 ft 457 kts 140°
2026-05-04 20:45 27.96498 -97.19446 34983 ft 447 kts 157°
2026-05-04 20:45 27.93711 -97.17973 34986 ft 440 kts 171°
2026-05-04 20:46 27.90766 -97.17259 34975 ft 427 kts 186°
2026-05-04 20:46 27.87833 -97.17238 34969 ft 420 kts 191°
2026-05-04 20:46 27.81982 -97.17470 34994 ft 422 kts 191°
2026-05-04 20:47 27.76208 -97.17617 34980 ft 413 kts 191°
2026-05-04 20:47 27.70665 -97.18342 34983 ft 385 kts 213°
2026-05-04 20:48 27.66391 -97.21492 34984 ft 356 kts 244°
2026-05-04 20:48 27.65287 -97.23948 36142 ft 349 kts 254°
2026-05-04 20:48 27.64847 -97.26624 35084 ft 343 kts 274°
2026-05-04 20:49 27.65057 -97.29298 35064 ft 343 kts 287°
2026-05-04 20:49 27.65925 -97.31807 35060 ft 347 kts 300°
2026-05-04 20:49 27.67435 -97.33952 35084 ft 356 kts 314°
2026-05-04 20:49 27.69523 -97.35534 36035 ft 370 kts 330°
2026-05-04 20:50 27.72046 -97.36341 34624 ft 389 kts 348°
2026-05-04 20:50 27.74799 -97.36199 34814 ft 406 kts
2026-05-04 20:50 27.77578 -97.35280 34874 ft 424 kts 13°
2026-05-04 20:50 27.80291 -97.33857 34937 ft 435 kts 18°
2026-05-04 20:51 27.85674 -97.30486 34979 ft 448 kts 20°
2026-05-04 20:51 27.91184 -97.27020 34987 ft 459 kts 19°
2026-05-04 20:52 27.96857 -97.23582 34978 ft 468 kts 19°
2026-05-04 20:52 28.02641 -97.20071 34985 ft 475 kts 19°
2026-05-04 20:53 28.08490 -97.16570 34995 ft 481 kts 19°
2026-05-04 20:53 28.14437 -97.13044 34973 ft 483 kts 19°
2026-05-04 20:54 28.19395 -97.10108 35000 ft 484 kts 18°
2026-05-04 20:54 28.25382 -97.06558 34975 ft 485 kts 19°
2026-05-04 20:55 28.31371 -97.03001 34976 ft 486 kts 19°
2026-05-04 20:55 28.37352 -96.99443 34971 ft 485 kts 19°
2026-05-04 20:56 28.43324 -96.95887 34969 ft 484 kts 19°
2026-05-04 20:56 28.49155 -96.91970 35008 ft 496 kts 29°
2026-05-04 20:57 28.54514 -96.86954 34981 ft 500 kts 31°
2026-05-04 20:57 28.57169 -96.84413 34779 ft 500 kts 31°
2026-05-04 20:57 28.59844 -96.81910 34260 ft 495 kts 30°
2026-05-04 20:58 28.62535 -96.79446 33409 ft 496 kts 30°
2026-05-04 20:58 28.65232 -96.77004 32669 ft 495 kts 30°
2026-05-04 20:58 28.67927 -96.74561 31909 ft 495 kts 30°
2026-05-04 20:58 28.70615 -96.72116 31180 ft 494 kts 30°
2026-05-04 20:59 28.73293 -96.69673 30438 ft 493 kts 30°
2026-05-04 20:59 28.75935 -96.67261 29556 ft 493 kts 30°
2026-05-04 20:59 28.78644 -96.64786 28594 ft 493 kts 30°
2026-05-04 20:59 28.81292 -96.62385 27803 ft 489 kts 28°
2026-05-04 21:00 28.84192 -96.60480 27177 ft 462 kts 11°
2026-05-04 21:00 28.87144 -96.59306 26630 ft 452 kts 10°
2026-05-04 21:00 28.90106 -96.58126 26005 ft 448 kts 11°
2026-05-04 21:00 28.93027 -96.56933 25395 ft 444 kts 11°
2026-05-04 21:01 28.95921 -96.55729 24766 ft 441 kts 11°
2026-05-04 21:01 28.98794 -96.54518 24146 ft 439 kts 11°
2026-05-04 21:01 29.01644 -96.53309 23529 ft 436 kts 12°
2026-05-04 21:01 29.04481 -96.52102 22817 ft 433 kts 12°
2026-05-04 21:02 29.07295 -96.50903 22149 ft 430 kts 12°
2026-05-04 21:02 29.10087 -96.49713 21556 ft 426 kts 12°
2026-05-04 21:02 29.12847 -96.48536 20964 ft 422 kts 12°
2026-05-04 21:02 29.15581 -96.47371 20373 ft 418 kts 13°
2026-05-04 21:03 29.18296 -96.46215 19790 ft 415 kts 13°
2026-05-04 21:03 29.20999 -96.45064 19157 ft 413 kts 14°
2026-05-04 21:03 29.23688 -96.43917 18566 ft 411 kts 14°
2026-05-04 21:03 29.26326 -96.42791 17938 ft 409 kts 14°
2026-05-04 21:04 29.28978 -96.41658 17304 ft 406 kts 14°
2026-05-04 21:04 29.31602 -96.40471 16713 ft 405 kts 18°
2026-05-04 21:04 29.34128 -96.39070 16131 ft 403 kts 21°
2026-05-04 21:04 29.36596 -96.37608 15577 ft 400 kts 22°
2026-05-04 21:05 29.39061 -96.36154 15020 ft 396 kts 21°
2026-05-04 21:05 29.41517 -96.34742 14433 ft 395 kts 21°
2026-05-04 21:05 29.43944 -96.33367 14219 ft 382 kts 21°
2026-05-04 21:05 29.46265 -96.31950 13984 ft 375 kts 30°
2026-05-04 21:06 29.48115 -96.29841 13799 ft 374 kts 48°
2026-05-04 21:06 29.49648 -96.27474 13597 ft 365 kts 49°
2026-05-04 21:06 29.51143 -96.25165 13384 ft 356 kts 49°
2026-05-04 21:06 29.52610 -96.22940 13196 ft 347 kts 48°
2026-05-04 21:07 29.54058 -96.20765 13050 ft 339 kts 48°
2026-05-04 21:07 29.55553 -96.18713 12702 ft 333 kts 41°
2026-05-04 21:07 29.57215 -96.16885 12323 ft 330 kts 38°
2026-05-04 21:07 29.58913 -96.15127 11954 ft 328 kts 38°
2026-05-04 21:08 29.60608 -96.13370 11582 ft 327 kts 38°
2026-05-04 21:08 29.62287 -96.11605 11203 ft 327 kts 39°
2026-05-04 21:08 29.63953 -96.09829 10822 ft 327 kts 40°
2026-05-04 21:08 29.65611 -96.08046 10456 ft 326 kts 40°
2026-05-04 21:09 29.67221 -96.06306 10099 ft 326 kts 40°
2026-05-04 21:09 29.68298 -96.05140 9892 ft 324 kts 40°
2026-05-04 21:09 29.69899 -96.03402 9906 ft 309 kts 40°
2026-05-04 21:10 29.71422 -96.01747 9794 ft 295 kts 40°
2026-05-04 21:10 29.72977 -96.00242 9478 ft 289 kts 32°
2026-05-04 21:10 29.74641 -95.98952 9101 ft 288 kts 29°
2026-05-04 21:10 29.76316 -95.97705 8727 ft 287 kts 30°
2026-05-04 21:11 29.77993 -95.96444 8343 ft 288 kts 30°
2026-05-04 21:11 29.79650 -95.95177 8011 ft 287 kts 31°
2026-05-04 21:11 29.81241 -95.93814 7729 ft 285 kts 46°
2026-05-04 21:11 29.82119 -95.91809 7472 ft 284 kts 83°
2026-05-04 21:12 29.82305 -95.89558 7274 ft 283 kts 86°
2026-05-04 21:12 29.82502 -95.87291 7045 ft 286 kts 85°
2026-05-04 21:12 29.82713 -95.85004 6811 ft 288 kts 85°
2026-05-04 21:12 29.82932 -95.82713 6583 ft 288 kts 85°
2026-05-04 21:13 29.83153 -95.80438 6355 ft 284 kts 85°
2026-05-04 21:13 29.83373 -95.78184 6124 ft 284 kts 86°
2026-05-04 21:13 29.83594 -95.75931 6020 ft 281 kts 86°
2026-05-04 21:13 29.83812 -95.73733 6019 ft 276 kts 86°
2026-05-04 21:14 29.84031 -95.71536 6004 ft 274 kts 86°
2026-05-04 21:14 29.84242 -95.69372 5980 ft 274 kts 85°
2026-05-04 21:14 29.84458 -95.67201 5986 ft 273 kts 85°
2026-05-04 21:14 29.84677 -95.64990 5987 ft 281 kts 85°
2026-05-04 21:15 29.84899 -95.62746 6007 ft 281 kts 85°
2026-05-04 21:15 29.85120 -95.60521 6008 ft 278 kts 85°
2026-05-04 21:15 29.85336 -95.58339 5988 ft 278 kts 85°
2026-05-04 21:15 29.85554 -95.56136 5992 ft 275 kts 85°
2026-05-04 21:16 29.85771 -95.53923 5995 ft 274 kts 85°
2026-05-04 21:16 29.85984 -95.51754 6004 ft 278 kts 85°
2026-05-04 21:16 29.86202 -95.49529 6011 ft 280 kts 85°
2026-05-04 21:16 29.86422 -95.47276 6007 ft 279 kts 85°
2026-05-04 21:17 29.86637 -95.45080 6004 ft 280 kts 85°
2026-05-04 21:17 29.86855 -95.42851 6008 ft 281 kts 86°
2026-05-04 21:17 29.87073 -95.40612 6014 ft 281 kts 85°
2026-05-04 21:17 29.87290 -95.38374 6001 ft 281 kts 85°
2026-05-04 21:18 29.87507 -95.36136 6006 ft 280 kts 86°
2026-05-04 21:18 29.87723 -95.33912 6007 ft 280 kts 86°
2026-05-04 21:18 29.87939 -95.31680 6001 ft 280 kts 85°
2026-05-04 21:18 29.88154 -95.29451 6012 ft 280 kts 85°
2026-05-04 21:19 29.88370 -95.27196 6073 ft 286 kts 85°
2026-05-04 21:19 29.88595 -95.24885 6008 ft 294 kts 85°
2026-05-04 21:19 29.88815 -95.22560 5978 ft 290 kts 86°
2026-05-04 21:19 29.89025 -95.20322 5977 ft 278 kts 86°
2026-05-04 21:20 29.89194 -95.18147 5871 ft 269 kts 91°
2026-05-04 21:20 29.89198 -95.16002 5651 ft 265 kts 93°
2026-05-04 21:20 29.89176 -95.13910 5408 ft 257 kts 94°
2026-05-04 21:20 29.89273 -95.11897 5087 ft 254 kts 78°
2026-05-04 21:21 29.90070 -95.10092 4798 ft 258 kts 49°
2026-05-04 21:21 29.91512 -95.08851 4479 ft 261 kts 23°
2026-05-04 21:21 29.93274 -95.08381 4158 ft 262 kts 360°
2026-05-04 21:21 29.95049 -95.08719 3671 ft 261 kts 334°
2026-05-04 21:22 29.96507 -95.09822 3477 ft 244 kts 311°
2026-05-04 21:22 29.97438 -95.11383 3212 ft 229 kts 288°
2026-05-04 21:22 29.97783 -95.13085 2959 ft 211 kts 268°
2026-05-04 21:22 29.97777 -95.14717 2693 ft 195 kts 265°
2026-05-04 21:23 29.97772 -95.16213 2472 ft 177 kts 265°
2026-05-04 21:23 29.97773 -95.17561 2222 ft 161 kts 265°
2026-05-04 21:23 29.97772 -95.18807 2019 ft 151 kts 263°
2026-05-04 21:23 29.97771 -95.20013 1827 ft 151 kts 264°
2026-05-04 21:24 29.97770 -95.21234 1628 ft 152 kts 264°
2026-05-04 21:24 29.97772 -95.22455 1377 ft 157 kts 265°
2026-05-04 21:24 29.97781 -95.23717 1252 ft 158 kts 264°
2026-05-04 21:24 29.97791 -95.24967 1256 ft 159 kts 264°
2026-05-04 21:25 29.97782 -95.26262 956 ft 165 kts 265°
2026-05-04 21:25 29.97770 -95.27624 665 ft 173 kts 266°
2026-05-04 21:25 29.97773 -95.28995 362 ft 166 kts 264°
2026-05-04 21:25 29.97768 -95.30266 134 ft 150 kts 269°
2026-05-04 21:26 29.97758 -95.31378 98 ft 125 kts 268°
2026-05-04 21:26 29.97775 -95.32080 97 ft 34 kts 279°
2026-05-04 21:26 29.97847 -95.32307 99 ft 24 kts 297°
2026-05-04 21:26 29.97872 -95.32451 99 ft 18 kts 268°
2026-05-04 21:27 29.97872 -95.32586 99 ft 17 kts 271°
2026-05-04 21:27 29.97872 -95.32675 99 ft 17 kts 270°
2026-05-04 21:27 29.97871 -95.32791 100 ft 7 kts 269°
2026-05-04 21:28 29.97871 -95.32841 100 ft 6 kts 269°
2026-05-04 21:28 29.97870 -95.32890 101 ft 6 kts 269°
2026-05-04 21:28 29.97871 -95.32942 101 ft 7 kts 272°
2026-05-04 21:28 29.97873 -95.32994 101 ft 6 kts 282°
2026-05-04 21:29 29.97894 -95.33019 100 ft 5 kts 334°
2026-05-04 21:29 29.97935 -95.33025 101 ft 6 kts
2026-05-04 21:29 29.97986 -95.33025 101 ft 10 kts 359°
2026-05-04 21:29 29.98058 -95.33025 101 ft 11 kts 356°
2026-05-04 21:30 29.98174 -95.33023 100 ft 18 kts 356°
2026-05-04 21:30 29.98299 -95.33026 100 ft 17 kts 359°
2026-05-04 21:30 29.98417 -95.33023 100 ft 17 kts 359°
2026-05-04 21:30 29.98531 -95.33025 100 ft 16 kts
2026-05-04 21:31 29.98738 -95.33027 100 ft 13 kts 357°
2026-05-04 21:31 29.98828 -95.33031 100 ft 13 kts
2026-05-04 21:31 29.98916 -95.33031 100 ft 13 kts 360°
2026-05-04 21:32 29.99002 -95.33026 100 ft 12 kts
2026-05-04 21:32 29.99077 -95.33053 100 ft 12 kts 302°
2026-05-04 21:32 29.99090 -95.33136 100 ft 10 kts 266°
2026-05-04 21:32 29.99090 -95.33211 100 ft 9 kts 270°
2026-05-04 21:33 29.99089 -95.33285 100 ft 9 kts 272°
2026-05-04 21:33 29.99089 -95.33383 99 ft 19 kts 271°
2026-05-04 21:33 29.99091 -95.33548 99 ft 21 kts 268°
2026-05-04 21:33 29.99095 -95.33708 98 ft 20 kts 271°
2026-05-04 21:34 29.99088 -95.33857 99 ft 17 kts 269°
2026-05-04 21:34 29.99080 -95.33953 99 ft 5 kts 240°
2026-05-04 21:34 29.99054 -95.33974 98 ft 5 kts 205°
2026-05-04 21:34 29.99018 -95.33993 101 ft 7 kts 205°
2026-05-04 21:35 29.98997 -95.34007 98 ft 0 kts 219°
2026-05-04 21:35 29.98977 -95.34036 98 ft 7 kts 238°
2026-05-04 21:35 29.98959 -95.34073 98 ft 5 kts 242°
2026-05-04 21:35 29.98953 -95.34086 99 ft 2 kts 243°
2026-05-04 21:36 29.98946 -95.34104 100 ft 0 kts 244°